Location: McFarlands Corners
(41.4117°N, 81.3382°W)
Time: 13:50:33
(UTC+00:00)

Courier 1B Rocket - Pass Details

Date: 25 February 2026
Orbit: 920 x 1201 km, 28.2° (Epoch: 10 March)

Event Time Altitude Azimuth Distance (km) Brightness Sun altitude
Rises 00:31:14 0° 250° (WSW) 3,564 9.3 -15.9°
Reaches altitude 10° 00:34:23 10° 236° (WSW) 2,606 8.0 -16.5°
Maximum altitude 00:39:06 23° 187° (S) 1,856 6.5 -17.4°
Enters shadow 00:42:51 13° 144° (SE) 2,369 6.7 -18.1°
Drops below altitude 10° 00:43:50 10° 137° (SE) 2,621 - -18.3°
Sets 00:47:01 0° 123° (ESE) 3,590 - -18.9°
